Temp
11 11 11 11 11 11 12 11 10 10 10 9 10 10 10 9 9 10 10 9 9 9 9 9 8 8 8 8 8 8 8 8 8 8 8 9 8 8 8 8 8 8 8 8 9 9 9 9 9
11 11 12 12 11 12 12 11 11 10 11 10 10 10 10 9 10 11 10 9 9 9 9 9 8 8 8 8 8 8 8 8 8 8 8 9 8 8 8 8 9 9 9 9 9 9 9 9 8
12 12 12 11 13 12 12 11 9 11 10 10 10 10 10 9 11 10 10 10 9 9 9 9 9 8 8 8 8 8 8 8 8 8 9 9 9 8 9 9 9 9 9 9 9 9 9 9 9
12 12 12 13 13 12 12 10 10 10 10 10 10 10 10 11 11 10 10 9 9 9 9 9 9 9 8 8 8 8 7 8 8 8 9 9 9 9 8 9 9 9 9 9 9 9 9 9 9
12 12 13 13 12 12 11 10 10 11 10 10 9 9 10 10 10 10 10 9 9 9 9 9 9 9 8 8 8 8 8 8 8 9 9 9 9 9 9 9 9 9 9 9 9 9 9 9 9
13 13 15 14 12 11 11 10 10 10 10 10 10 9 10 11 10 10 10 9 9 9 9 9 9 9 8 8 8 8 8 8 8 9 9 9 9 9 9 9 9 9 9 9 9 9 9 9 9
12 14 14 13 12 11 11 10 10 10 9 11 9 9 11 10 10 10 10 10 9 9 9 9 9 9 9 8 8 8 8 8 8 9 9 9 9 9 9 9 9 9 9 9 9 9 9 9 9
13 13 14 14 13 12 11 10 10 11 10 11 9 11 11 11 11 10 10 10 10 9 9 9 9 9 9 9 9 8 8 9 8 9 9 9 9 9 9 9 9 9 9 9 9 9 9 9 9
14 15 15 14 14 12 11 11 10 11 10 10 9 10 11 12 11 11 10 10 10 10 10 10 10 10 9 9 9 8 9 9 9 9 9 9 9 9 9 9 9 9 9 9 9 9 9 9 9
13 16 14 14 13 13 11 11 12 10 10 11 11 10 11 11 12 11 11 10 10 10 10 10 10 10 10 10 9 9 9 9 9 9 9 9 9 9 8 9 9 9 9 9 9 9 9 9 9
14 15 14 13 13 13 12 11 11 11 11 11 11 12 12 11 12 11 11 10 11 11 11 10 10 10 10 10 10 9 9 9 9 9 9 9 9 8 8 9 9 9 9 9 9 9 9 9 9
14 13 14 14 13 13 13 12 11 12 12 11 12 12 12 12 12 12 11 11 11 11 11 10 10 10 10 10 9 9 9 9 9 9 9 9 9 9 9 9 9 9 9 9 9 9 9 9 9
15 14 14 14 13 13 13 12 12 12 13 12 12 12 12 12 11 12 11 11 11 11 11 10 10 10 10 10 9 9 9 9 9 9 9 9 9 9 9 9 9 9 9 9 9 9 9 9 9
15 15 14 14 14 13 13 13 13 12 13 13 13 13 12 12 12 12 12 12 12 11 11 10 10 10 10 10 9 9 9 9 9 9 9 9 9 9 9 9 9 9 9 9 9 9 9 9 9
15 15 14 14 14 13 13 13 13 13 13 13 13 12 12 12 12 12 12 12 12 11 11 11 10 10 10 10 10 10 9 9 9 9 9 9 9 9 9 9 9 9 9 9 9 9 9 9 8
15 15 15 14 14 14 13 15 14 14 14 13 13 13 13 13 12 12 11 12 12 11 11 11 11 10 10 10 10 10 10 9 9 9 9 9 9 9 9 9 9 9 9 9 9 9 9 9 9
16 17 16 15 14 14 14 16 15 14 14 13 13 13 13 12 12 13 12 12 12 12 12 12 11 11 10 10 10 10 10 10 10 10 10 10 9 9 10 9 9 9 9 9 9 9 9 9 9
17 17 16 16 15 14 15 15 15 14 14 13 14 13 13 13 13 13 13 12 12 12 12 12 12 11 11 10 10 10 10 10 10 10 10 10 9 9 9 9 9 9 9 9 9 9 9 9 9
17 17 17 16 15 15 15 16 16 15 15 13 13 13 13 13 13 13 12 12 12 12 12 12 12 12 11 11 10 10 10 10 10 10 10 9 9 9 9 9 9 9 9 9 9 9 9 9 9
16 17 17 16 16 15 16 16 16 15 15 14 14 13 13 13 12 13 13 12 12 12 12 12 12 12 11 11 10 10 10 10 10 10 10 9 9 9 9 9 9 9 9 9 9 9 9 9 9
17 17 17 17 15 15 15 17 17 15 14 14 14 13 13 13 13 13 13 13 12 12 12 12 11 11 11 11 10 10 11 10 10 10 9 9 9 9 9 9 9 9 9 9 9 9 9 9 9
18 17 16 17 16 18 16 19 18 17 17 17 16 15 13 13 13 13 13 13 13 12 11 11 11 11 11 11 11 10 10 11 10 9 9 9 9 9 9 9 9 9 9 9 8 9 9 9 9
17 16 16 16 17 17 18 17 19 17 17 17 17 16 15 13 13 14 13 13 13 12 11 11 11 11 11 11 11 11 11 11 11 10 10 9 9 9 9 9 9 9 9 9 9 8 9 9 9
16 16 16 16 17 19 19 18 20 18 18 17 17 17 16 15 14 14 14 13 13 12 11 11 11 11 11 11 11 11 11 11 11 10 9 9 9 9 10 9 9 10 9 9 9 8 9 9 9
15 17 18 19 20 21 18 18 20 18 18 18 17 17 17 16 16 15 14 13 13 12 12 12 11 11 11 11 11 11 11 11 11 10 10 10 9 9 9 9 10 10 10 9 9 9 9 9 9
16 17 19 19 21 22 18 19 20 18 18 18 19 18 18 17 15 15 15 14 14 14 13 12 12 11 11 11 11 11 11 11 11 10 10 9 9 9 9 9 9 10 9 9 9 9 9 9 9
17 16 17 18 19 19 19 20 19 19 19 18 18 18 18 18 17 16 15 15 14 14 13 13 13 12 11 11 11 11 11 11 11 10 10 10 9 9 9 9 9 9 9 9 9 9 9 9 10
16 16 17 17 19 19 20 20 20 20 19 19 19 18 18 19 18 17 16 15 14 14 14 13 13 13 12 12 12 12 11 11 11 10 10 10 9 9 9 9 10 9 9 9 9 10 10 10 10
15 16 16 17 19 20 21 20 20 19 19 19 19 19 18 18 18 17 17 16 15 14 14 13 13 13 13 12 12 12 12 11 11 11 10 10 10 10 9 9 9 9 9 9 10 10 10 10 10
17 17 17 17 18 18 19 20 19 19 19 19 19 19 18 19 18 17 17 16 15 15 14 14 13 13 13 12 12 12 11 11 11 11 10 10 10 10 10 9 9 9 9 10 10 10 10 10 9
Height
3159 3159 3159 3159 3165 3164 3164 3168 3168 3170 3171 3171 3172 3173 3175 3176 3179 3184 3181 3182 3184 3185 3186 3187 3187 3188 3189 3190 3191 3192 3193 3194 3195 3197 3198 3200 3202 3203 3204 3205 3206 3207 3209 3208 3209 3211 3211 3212 3213
3160 3160 3160 3160 3164 3163 3167 3169 3171 3171 3171 3172 3174 3174 3175 3177 3177 3179 3182 3183 3185 3187 3188 3189 3190 3190 3191 3192 3194 3194 3194 3195 3196 3198 3200 3202 3204 3205 3206 3208 3208 3210 3210 3211 3213 3213 3214 3215 3215
3162 3162 3162 3163 3164 3166 3168 3172 3170 3172 3173 3174 3175 3176 3176 3179 3179 3181 3184 3185 3187 3188 3189 3191 3192 3192 3193 3194 3195 3196 3197 3197 3197 3199 3202 3204 3206 3207 3208 3210 3210 3212 3213 3214 3215 3216 3217 3218 3218
3163 3164 3165 3164 3167 3168 3168 3170 3172 3173 3174 3175 3176 3178 3180 3180 3181 3182 3184 3187 3188 3189 3191 3192 3193 3194 3195 3195 3197 3197 3198 3199 3200 3201 3202 3206 3208 3210 3211 3212 3213 3214 3216 3217 3218 3219 3219 3220 3221
3166 3166 3168 3168 3170 3171 3171 3172 3173 3175 3175 3176 3178 3179 3180 3181 3183 3184 3187 3189 3189 3191 3193 3194 3194 3195 3197 3198 3198 3198 3199 3199 3201 3202 3204 3207 3210 3211 3213 3214 3216 3217 3218 3219 3221 3221 3222 3223 3223
3170 3168 3169 3170 3173 3173 3174 3176 3177 3177 3177 3177 3178 3179 3181 3182 3184 3186 3188 3190 3191 3193 3195 3195 3196 3197 3199 3199 3200 3200 3201 3201 3202 3203 3205 3208 3211 3213 3215 3216 3218 3219 3220 3222 3223 3224 3225 3226 3227
3173 3172 3173 3173 3175 3176 3176 3177 3179 3178 3178 3178 3180 3181 3183 3184 3185 3188 3190 3192 3193 3195 3196 3198 3198 3199 3200 3201 3201 3201 3203 3203 3203 3204 3206 3209 3212 3214 3217 3218 3220 3221 3223 3224 3225 3226 3227 3228 3229
3173 3174 3175 3175 3176 3178 3178 3179 3179 3181 3180 3179 3181 3182 3184 3185 3186 3189 3191 3194 3196 3197 3198 3199 3200 3201 3202 3202 3203 3203 3204 3204 3205 3206 3208 3211 3213 3215 3217 3219 3221 3223 3225 3225 3227 3228 3229 3230 3231
3174 3175 3176 3177 3177 3179 3178 3180 3179 3179 3179 3181 3182 3184 3185 3186 3188 3191 3193 3196 3197 3198 3199 3201 3202 3203 3204 3204 3205 3205 3206 3207 3208 3209 3210 3212 3214 3216 3218 3221 3222 3224 3226 3226 3228 3229 3230 3231 3232
3176 3176 3178 3179 3179 3179 3179 3180 3179 3181 3181 3182 3183 3185 3186 3189 3190 3193 3195 3197 3198 3200 3201 3203 3204 3205 3206 3206 3207 3207 3208 3209 3210 3211 3212 3213 3215 3217 3219 3221 3222 3224 3226 3227 3229 3230 3230 3232 3233
3177 3178 3180 3180 3181 3181 3181 3182 3181 3183 3184 3184 3184 3185 3187 3190 3192 3194 3197 3198 3201 3202 3203 3204 3206 3206 3207 3207 3208 3209 3209 3210 3211 3212 3213 3214 3215 3217 3219 3221 3222 3224 3226 3227 3228 3230 3231 3231 3233
3179 3178 3181 3182 3181 3183 3183 3184 3184 3186 3187 3186 3185 3187 3189 3190 3193 3196 3198 3200 3201 3202 3204 3205 3206 3206 3208 3208 3208 3209 3210 3211 3213 3214 3214 3215 3216 3217 3219 3220 3223 3224 3226 3228 3229 3230 3230 3231 3232
3180 3180 3181 3183 3183 3185 3185 3186 3187 3187 3186 3187 3187 3188 3190 3192 3194 3196 3198 3200 3201 3202 3203 3204 3205 3206 3207 3208 3209 3210 3211 3212 3213 3214 3215 3216 3217 3218 3219 3220 3222 3224 3225 3227 3228 3230 3231 3232 3233
3181 3182 3183 3185 3186 3186 3187 3187 3186 3188 3187 3188 3188 3189 3190 3193 3194 3196 3198 3200 3202 3202 3203 3205 3205 3206 3207 3208 3209 3210 3211 3212 3213 3214 3215 3216 3217 3218 3218 3220 3221 3223 3225 3226 3228 3229 3231 3232 3234
3183 3184 3185 3186 3186 3186 3187 3187 3186 3187 3187 3188 3188 3189 3190 3193 3194 3195 3198 3200 3201 3203 3203 3205 3206 3207 3208 3209 3209 3210 3211 3212 3213 3214 3215 3216 3216 3218 3219 3220 3221 3222 3224 3225 3227 3229 3230 3231 3232
3184 3185 3185 3186 3186 3186 3187 3185 3187 3186 3187 3187 3188 3189 3191 3193 3195 3196 3198 3199 3201 3202 3203 3204 3205 3206 3207 3208 3209 3210 3212 3212 3213 3214 3215 3215 3217 3217 3218 3219 3220 3221 3223 3224 3225 3227 3229 3230 3231
3183 3182 3184 3185 3185 3186 3186 3185 3187 3186 3186 3187 3188 3189 3190 3192 3193 3195 3196 3198 3200 3201 3202 3203 3204 3206 3206 3208 3209 3210 3211 3212 3213 3214 3215 3216 3217 3217 3218 3219 3220 3220 3221 3223 3224 3225 3227 3229 3230
3180 3181 3183 3184 3185 3183 3184 3184 3185 3183 3184 3186 3186 3187 3189 3189 3192 3193 3195 3197 3198 3200 3201 3202 3203 3204 3205 3207 3208 3210 3211 3212 3212 3213 3215 3216 3217 3217 3218 3219 3220 3220 3221 3222 3223 3224 3225 3227 3227
3180 3180 3181 3182 3183 3182 3182 3182 3182 3180 3180 3183 3184 3185 3186 3188 3189 3192 3193 3195 3197 3199 3200 3200 3201 3202 3204 3206 3208 3209 3210 3211 3212 3212 3213 3216 3217 3218 3218 3219 3220 3220 3221 3222 3223 3224 3225 3226 3227
3179 3178 3179 3180 3179 3179 3179 3177 3177 3177 3175 3178 3181 3182 3183 3185 3186 3187 3190 3192 3194 3197 3198 3199 3200 3201 3203 3205 3206 3208 3208 3210 3211 3212 3214 3214 3216 3216 3218 3218 3220 3220 3221 3222 3222 3224 3224 3225 3226
3177 3176 3177 3179 3178 3175 3174 3171 3171 3171 3170 3173 3176 3179 3181 3181 3183 3185 3186 3189 3192 3194 3196 3197 3198 3199 3201 3202 3204 3206 3207 3208 3210 3211 3212 3213 3214 3216 3217 3218 3218 3220 3220 3220 3222 3222 3224 3224 3226
3173 3174 3177 3177 3177 3173 3174 3170 3169 3168 3168 3169 3171 3173 3177 3178 3180 3182 3184 3186 3188 3192 3194 3196 3197 3198 3199 3201 3203 3205 3206 3207 3208 3210 3211 3213 3214 3215 3216 3216 3218 3219 3220 3220 3221 3222 3222 3224 3225
3174 3173 3175 3175 3174 3173 3170 3171 3165 3166 3166 3166 3167 3169 3172 3175 3177 3179 3182 3185 3187 3189 3191 3194 3195 3196 3197 3199 3201 3202 3204 3204 3206 3208 3209 3211 3213 3213 3214 3216 3217 3217 3219 3219 3218 3221 3222 3222 3224
3171 3173 3172 3172 3172 3168 3164 3169 3160 3165 3166 3167 3165 3166 3168 3170 3173 3176 3180 3182 3184 3186 3188 3190 3192 3194 3195 3197 3199 3200 3202 3203 3204 3206 3208 3209 3210 3212 3213 3215 3215 3216 3218 3218 3217 3220 3221 3222 3222
3169 3170 3167 3165 3163 3160 3164 3167 3159 3164 3165 3166 3166 3165 3165 3167 3169 3172 3175 3177 3180 3181 3184 3187 3189 3191 3193 3195 3197 3199 3200 3201 3202 3204 3205 3207 3207 3209 3211 3213 3215 3216 3217 3217 3217 3218 3219 3220 3221
3164 3165 3162 3160 3155 3153 3162 3161 3159 3162 3163 3164 3163 3164 3164 3164 3166 3168 3171 3174 3176 3179 3181 3184 3186 3189 3191 3193 3195 3197 3199 3200 3200 3203 3204 3206 3206 3206 3207 3211 3212 3214 3215 3216 3216 3218 3219 3219 3220
3159 3161 3163 3159 3156 3159 3159 3158 3159 3160 3161 3161 3161 3162 3161 3161 3162 3164 3167 3171 3173 3176 3178 3181 3184 3186 3188 3191 3193 3195 3196 3198 3199 3200 3202 3203 3204 3205 3206 3209 3210 3212 3212 3214 3215 3216 3218 3219 3220
3154 3159 3161 3160 3156 3153 3152 3154 3156 3157 3159 3159 3158 3159 3158 3157 3157 3160 3163 3167 3170 3173 3176 3179 3181 3183 3185 3187 3190 3192 3194 3196 3197 3198 3199 3201 3202 3204 3205 3207 3208 3208 3209 3212 3214 3215 3216 3218 3219
3151 3152 3154 3153 3150 3148 3148 3148 3151 3153 3155 3155 3155 3155 3155 3153 3153 3156 3160 3163 3167 3170 3173 3176 3179 3180 3182 3184 3187 3189 3191 3193 3195 3196 3197 3198 3200 3202 3203 3205 3206 3207 3208 3211 3212 3214 3216 3217 3217
3142 3144 3148 3148 3148 3149 3147 3146 3148 3150 3151 3151 3151 3151 3151 3150 3150 3153 3157 3160 3163 3166 3169 3172 3176 3178 3180 3182 3184 3187 3188 3190 3192 3194 3195 3195 3197 3199 3201 3202 3203 3205 3207 3210 3211 3213 3215 3216 3217
Wind_Speed
7 5 4 3 5 7 11 9 15 18 16 15 13 12 10 8 6 5 20 19 18 16 16 15 14 15 13 13 14 13 13 13 11 12 14 15 12 14 17 18 18 16 16 18 18 18 19 18 19
9 8 8 9 6 10 10 14 16 12 14 14 12 17 8 3 9 20 20 20 18 17 16 14 15 15 14 14 13 12 13 13 12 11 13 14 13 13 16 16 19 17 15 18 17 17 17 17 17
8 8 7 5 4 6 12 15 12 14 9 8 9 6 9 9 20 20 18 19 19 18 15 14 15 15 14 13 12 10 11 11 12 11 14 14 14 13 15 16 16 16 16 16 16 16 16 16 16
11 12 15 7 12 10 11 18 13 9 9 7 4 9 8 18 21 20 19 17 19 17 15 14 14 14 13 12 12 11 10 11 12 11 14 15 15 14 15 16 17 16 15 15 14 14 13 14 14
13 16 8 13 13 15 14 14 15 9 4 3 7 7 17 21 20 19 18 17 17 14 13 12 13 14 11 11 11 11 10 11 10 13 15 16 15 15 14 16 16 16 15 14 12 12 12 12 12
14 10 10 14 15 14 14 14 9 6 5 4 7 15 23 22 20 19 16 16 17 14 11 11 12 13 11 10 10 12 9 10 12 13 15 17 16 15 15 15 15 14 12 11 10 11 11 11 12
8 10 13 12 13 11 12 12 8 5 7 6 13 19 24 22 20 17 16 15 15 14 12 10 11 11 9 9 10 11 10 12 13 14 15 18 16 15 16 15 13 13 12 11 11 10 9 9 10
9 10 9 9 10 11 12 10 8 7 7 13 15 20 24 20 19 17 16 14 14 14 13 11 9 10 9 8 9 10 10 12 12 13 14 17 15 15 14 13 13 12 11 10 10 11 10 9 8
11 7 11 11 10 11 12 9 9 8 10 11 13 12 17 16 15 16 15 14 13 13 13 11 9 8 7 7 9 10 10 11 11 11 13 15 15 13 12 12 10 10 11 10 9 8 7 5 6
9 8 10 12 14 15 14 10 10 9 11 11 12 14 14 16 13 14 13 10 10 12 12 10 8 6 6 7 8 9 11 12 11 11 12 13 14 13 11 11 10 8 9 9 7 6 6 4 4
5 8 11 13 14 15 14 11 11 11 9 7 8 14 17 15 15 15 13 8 8 9 9 9 8 6 5 6 8 9 9 12 10 10 11 12 11 11 12 11 11 10 9 9 8 7 7 7 6
8 7 11 12 14 14 14 13 10 10 7 8 12 15 16 17 17 16 14 12 9 9 8 9 7 6 5 5 8 9 8 10 10 10 10 10 11 11 12 13 11 11 10 9 8 8 7 6 6
9 9 12 12 13 11 11 10 8 9 10 7 10 20 18 17 14 15 16 13 11 9 9 9 8 7 7 7 8 8 8 8 9 8 7 8 9 9 9 10 11 11 10 10 9 8 8 7 6
11 11 12 12 13 12 9 7 8 8 8 8 7 15 19 18 20 18 15 10 8 8 7 7 9 9 8 7 8 9 8 8 7 8 8 8 7 7 8 8 8 9 9 9 8 8 8 8 8
11 13 12 11 10 7 7 6 7 6 7 6 6 9 20 21 20 19 13 9 9 11 11 10 9 9 8 6 6 6 6 6 7 7 7 7 6 6 6 7 8 9 9 8 8 7 6 6 6
6 7 7 7 9 7 7 4 8 5 5 7 7 7 20 17 17 17 14 13 12 10 11 11 11 10 8 7 6 5 6 7 7 5 6 6 6 7 7 7 7 7 8 9 9 7 7 6 6
9 5 4 4 9 7 10 1 4 4 5 9 9 9 13 15 20 18 17 17 15 13 11 11 11 10 9 7 6 6 6 6 7 7 6 6 4 4 6 5 5 6 7 8 8 7 7 6 6
8 6 3 5 7 10 11 12 11 12 10 13 13 15 13 16 16 19 21 19 16 12 9 10 11 11 9 8 6 6 6 9 8 7 6 6 6 4 4 6 5 5 4 3 5 7 6 4 6
7 5 6 5 8 10 13 14 12 18 15 17 17 19 18 14 18 20 23 19 17 14 11 9 10 11 9 7 6 7 7 9 9 8 10 8 7 4 4 5 5 4 4 3 5 5 7 6 7
8 7 4 6 11 11 12 17 15 16 19 14 16 21 21 20 23 26 26 24 21 17 14 13 12 13 12 10 10 10 11 11 11 11 9 8 8 8 6 4 6 4 2 3 3 3 4 3 3
11 10 7 9 10 8 10 15 8 10 14 17 19 20 24 24 18 20 25 27 25 21 18 14 11 12 13 12 10 10 9 9 10 11 12 10 9 10 10 6 6 7 5 4 4 6 7 4 2
16 6 9 10 6 7 9 8 7 4 6 13 18 22 28 25 21 18 16 20 25 22 21 17 15 13 13 13 11 11 12 11 12 13 14 11 11 12 15 9 9 8 7 6 8 8 8 9 4
17 10 9 9 10 10 11 8 2 7 6 7 16 20 27 28 25 21 19 14 11 21 24 20 16 15 13 10 10 11 12 11 11 14 14 11 11 10 10 11 9 7 6 8 12 10 8 6 7
12 9 10 11 11 15 2 6 7 8 3 3 5 13 20 26 25 23 19 20 17 19 24 24 20 15 13 12 11 13 13 11 9 12 14 11 12 13 16 14 9 7 7 4 3 9 7 5 6
18 15 16 13 12 7 3 5 7 5 2 4 3 6 18 23 25 26 26 26 23 22 25 26 22 19 15 13 12 13 15 12 10 9 12 12 11 12 18 16 12 10 8 5 6 7 8 8 6
22 23 21 9 11 6 2 6 6 3 7 6 5 5 12 21 27 28 29 27 22 18 18 23 21 20 19 15 14 15 16 14 13 13 14 14 10 10 13 14 14 12 12 9 7 7 8 6 5
18 21 20 23 19 13 18 12 15 10 2 6 5 8 7 16 23 29 30 28 24 19 18 16 18 19 19 16 16 17 17 16 15 14 13 10 11 9 9 10 11 13 13 9 6 8 7 5 6
28 16 19 22 16 16 14 13 16 12 12 8 11 10 8 13 22 28 31 30 25 22 18 18 19 18 17 18 18 18 16 16 16 15 14 12 11 11 9 9 8 9 12 9 8 8 8 7 6
17 30 24 23 24 18 13 16 11 10 11 13 15 15 11 11 16 24 29 31 28 24 24 21 19 21 19 18 18 19 18 17 17 15 16 14 12 13 11 10 8 8 7 7 9 9 8 8 6
20 25 33 28 25 21 25 24 15 17 18 19 14 14 11 10 12 23 27 30 30 28 26 23 20 20 16 15 15 16 17 17 16 16 15 14 13 11 10 12 14 13 8 9 10 11 9 8 4
Wind_Direction
98 58 48 88 87 102 106 110 128 122 126 127 134 133 138 123 144 154 151 140 133 128 122 119 117 111 111 115 116 114 114 116 129 135 131 133 127 123 118 112 110 104 105 101 97 101 101 101 101
88 90 101 97 101 101 98 129 128 133 130 123 122 127 120 73 127 139 141 135 134 128 123 118 112 106 103 106 114 114 112 111 121 144 144 139 131 128 120 115 117 115 106 106 111 105 104 101 102
83 102 83 81 65 111 127 140 154 150 135 140 143 113 136 122 132 139 139 135 134 129 124 118 111 106 103 105 101 106 106 104 112 143 154 148 139 134 125 119 118 118 117 116 114 112 110 108 107
79 92 83 75 87 86 140 156 139 116 133 141 130 132 156 140 137 139 139 140 132 127 127 119 109 101 100 100 104 111 116 100 105 134 154 154 146 137 130 128 128 121 118 116 112 112 112 111 113
73 81 90 95 90 105 116 128 108 108 104 117 132 148 152 142 141 139 141 141 126 127 126 117 108 101 97 93 94 93 99 108 96 125 152 155 150 141 135 133 132 129 123 123 115 114 114 115 115
79 82 95 100 105 116 125 132 119 107 123 134 140 150 153 148 144 146 143 142 131 132 127 118 109 101 100 99 97 94 94 97 92 114 148 155 152 145 141 139 138 137 133 129 127 125 120 119 118
100 79 87 101 109 117 135 134 125 132 130 120 144 148 151 152 152 146 145 144 143 137 131 124 114 104 103 100 96 97 98 99 93 107 141 156 154 147 147 144 144 145 139 140 137 131 120 123 126
89 93 94 103 110 126 145 142 148 119 150 144 150 162 159 159 153 150 151 149 151 145 138 129 118 110 106 101 97 103 105 105 99 105 134 155 155 152 152 153 151 153 148 146 144 137 131 120 125
87 101 92 106 107 128 143 136 133 130 144 150 154 162 170 156 156 151 153 156 160 152 142 135 125 117 109 103 96 102 114 116 118 116 133 152 160 160 160 161 161 158 157 152 146 145 144 129 113
81 84 101 107 113 122 134 129 114 121 145 153 153 164 171 159 142 128 138 175 164 154 148 138 131 128 124 112 107 111 119 115 127 124 131 149 161 164 168 173 172 166 163 160 151 152 156 167 169
92 94 125 118 119 120 128 126 117 130 141 152 141 161 155 147 143 143 136 138 159 159 152 141 138 139 136 126 124 128 123 128 126 135 138 146 160 174 178 176 179 174 165 166 170 169 178 184 191
83 127 134 131 123 123 123 118 118 112 127 151 138 147 147 159 158 155 154 167 173 166 163 150 147 147 142 139 130 128 120 131 135 133 145 156 160 172 181 184 185 180 175 177 183 179 178 186 197
95 122 133 136 129 128 123 130 126 133 95 113 143 154 161 163 174 172 180 168 177 176 169 162 156 155 154 149 137 130 130 135 138 149 150 157 169 175 182 186 185 189 192 188 196 200 194 193 198
105 120 128 137 137 143 144 156 135 149 122 98 118 163 164 173 179 173 176 191 178 174 181 177 167 165 157 157 148 145 145 141 151 156 160 167 173 179 190 198 201 203 206 207 205 211 212 210 210
122 116 124 140 156 172 173 198 179 178 154 152 109 159 179 178 186 189 178 181 182 180 180 179 167 169 162 158 153 162 175 155 152 163 161 158 176 195 201 203 209 218 219 218 215 214 214 214 220
154 154 148 178 183 213 201 120 201 211 196 180 160 152 173 175 186 194 193 181 177 179 180 179 173 173 169 164 159 170 191 193 179 177 183 186 185 193 200 214 215 220 227 233 236 233 235 239 238
198 170 201 203 212 241 217 209 216 275 236 210 194 183 188 197 194 196 196 181 177 175 175 181 182 186 185 179 178 182 191 190 196 196 198 199 198 202 190 216 232 240 241 241 243 241 244 250 256
193 216 220 247 263 240 255 266 264 274 257 215 203 201 197 201 196 202 194 190 195 192 186 187 194 197 201 199 188 191 198 202 206 205 213 215 220 226 208 217 217 224 224 241 240 239 252 265 274
213 251 258 276 256 266 272 275 272 263 264 221 212 200 199 188 200 199 196 207 217 215 210 208 208 206 210 202 193 198 209 207 209 211 217 226 222 233 254 240 237 228 221 227 254 254 237 257 280
226 247 267 301 307 289 291 283 277 252 270 248 223 209 194 191 199 207 215 220 222 225 221 214 199 201 199 203 199 208 210 210 212 215 219 226 223 226 225 227 223 240 236 225 220 213 234 245 285
242 262 294 311 301 298 305 298 274 258 239 231 212 209 201 201 204 209 219 224 224 222 223 212 200 190 199 206 212 217 219 221 220 231 227 234 230 228 234 222 220 222 223 248 241 233 229 228 272
258 269 284 290 291 319 301 299 305 256 196 217 218 209 203 203 197 197 205 218 224 219 213 208 205 196 196 204 211 218 218 217 219 219 227 230 223 234 227 216 221 230 233 235 242 244 218 218 201
251 275 279 282 282 289 249 273 196 253 258 242 222 214 209 208 209 206 203 208 206 209 211 206 204 206 202 206 203 211 215 217 223 225 222 227 231 225 196 212 224 239 252 267 248 234 211 197 211
240 259 266 266 275 269 221 249 158 137 126 246 227 218 208 201 206 209 198 201 200 204 208 207 208 213 210 207 208 206 211 214 221 224 216 221 228 222 207 221 225 243 240 276 229 223 216 214 219
230 241 244 232 218 246 87 257 293 206 310 336 298 249 205 206 206 208 200 201 202 213 212 213 210 211 216 213 212 210 211 202 202 205 201 215 216 240 229 222 228 242 244 256 230 198 196 206 206
225 227 235 232 254 235 195 249 152 208 311 324 24 231 232 216 210 209 207 208 214 212 213 217 215 211 217 214 205 207 210 204 198 201 203 217 217 248 230 227 225 235 258 244 222 213 204 189 189
212 225 229 268 267 266 264 258 276 279 318 304 327 308 318 245 225 213 210 212 214 212 216 217 214 210 216 215 206 207 211 210 202 197 205 213 219 205 202 213 227 236 249 238 226 213 209 194 166
229 230 228 232 257 261 259 247 273 273 288 302 308 316 289 314 225 217 212 212 207 205 210 218 213 203 204 203 205 207 208 210 212 204 203 211 216 216 220 231 247 258 221 222 214 201 184 175 166
218 227 234 249 239 246 254 254 266 282 290 302 299 299 292 302 239 212 215 212 204 203 208 213 204 184 187 188 197 203 204 210 217 216 209 212 220 229 234 242 228 196 181 215 205 187 177 171 173
235 229 226 228 234 240 264 272 268 284 288 300 297 285 275 300 232 210 209 211 206 204 206 212 208 206 180 178 188 194 199 206 216 221 220 220 223 233 241 244 224 217 188 200 185 175 175 170 167